CW0565 Weather Reports


time (UTC)temp
C
wind
direction
speed
KPH
gust
KPH
rain 1hr
cm
rain 24hr
cm
rain mn
cm
humidity
%
barometer
mb
20200531081538 18 147 12.9 27.4 0.00 0.00 0.00 32 1031.6
20200531080514 18 115 11.3 19.3 0.00 0.00 0.00 36 1031.4
20200531080022 18 42 4.8 19.3 0.00 0.00 0.00 38 1031.5
20200531075513 18 97 8.0 19.3 0.00 0.00 0.00 38 1031.5
20200531075021 18 69 3.2 17.7 0.00 0.00 0.00 38 1031.5
20200531074514 18 98 9.7 19.3 0.00 0.00 0.00 38 1031.6
20200531074010 18 85 6.4 24.1 0.00 0.00 0.00 38 1031.5
20200531073508 18 112 11.3 27.4 0.00 0.00 0.00 37 1031.6
20200531073009 18 105 16.1 27.4 0.00 0.00 0.00 38 1031.6
20200531072506 18 67 12.9 24.1 0.00 0.00 0.00 38 1031.6
20200531072004 18 5 8.0 24.1 0.00 0.00 0.00 41 1031.5
20200531071505 18 52 9.7 22.5 0.00 0.00 0.00 40 1031.5
20200531070510 18 84 3.2 16.1 0.00 0.00 0.00 43 1031.5
20200531070004 17 65 4.8 19.3 0.00 0.00 0.00 44 1031.4
20200531065559 17 19 3.2 19.3 0.00 0.00 0.00 45 1031.5
20200531065058 17 91 12.9 22.5 0.00 0.00 0.00 44 1031.5
20200531064635 17 113 9.7 22.5 0.00 0.00 0.00 45 1031.4
20200531064059 17 30 6.4 22.5 0.00 0.00 0.00 47 1031.6
20200531063603 17 90 4.8 22.5 0.00 0.00 0.00 48 1031.6
20200531063133 16 57 6.4 12.9 0.00 0.00 0.00 53 1031.6
20200531062551 16 34 6.4 11.3 0.00 0.00 0.00 54 1031.6
20200531062050 15 37 3.2 16.1 0.00 0.00 0.00 56 1031.6
20200531061622 15 27 9.7 16.1 0.00 0.00 0.00 56 1031.6
20200531060547 14 36 8.0 14.5 0.00 0.00 0.00 59 1031.6
20200531060208 14 27 9.7 16.1 0.00 0.00 0.00 61 1031.6
20200531055545 13 26 9.7 16.1 0.00 0.00 0.00 62 1031.5
20200531055042 13 14 8.0 14.5 0.00 0.00 0.00 64 1031.4
20200531054614 13 360 8.0 16.1 0.00 0.00 0.00 64 1031.5
20200531054055 12 24 9.7 17.7 0.00 0.00 0.00 65 1031.4
20200531053544 12 19 9.7 17.7 0.00 0.00 0.00 66 1031.5
20200531053104 12 10 9.7 19.3 0.00 0.00 0.00 66 1031.5
20200531052551 12 16 8.0 14.5 0.00 0.00 0.00 67 1031.4
20200531052039 12 9 8.0 17.7 0.00 0.00 0.00 67 1031.5
20200531051617 11 17 9.7 16.1 0.00 0.00 0.00 68 1031.5
20200531050534 11 350 8.0 19.3 0.00 0.00 0.00 70 1031.4
20200531050034 11 9 8.0 19.3 0.00 0.00 0.00 70 1031.5
20200531045532 11 347 8.0 14.5 0.00 0.00 0.00 71 1031.5
20200531045034 11 355 9.7 16.1 0.00 0.00 0.00 71 1031.5
20200531044610 11 355 9.7 16.1 0.00 0.00 0.00 72 1031.5
20200531044031 10 355 12.9 17.7 0.00 0.00 0.00 73 1031.5
20200531043529 10 355 9.7 17.7 0.00 0.00 0.00 74 1031.5
20200531043057 10 355 11.3 16.1 0.00 0.00 0.00 75 1031.5
20200531042528 10 346 8.0 16.1 0.00 0.00 0.00 74 1031.5
20200531042027 10 340 11.3 16.1 0.00 0.00 0.00 74 1031.6
20200531041616 10 10 11.3 16.1 0.00 0.00 0.00 74 1031.5
20200531040531 10 5 12.9 17.7 0.00 0.00 0.00 74 1031.6
20200531040100 10 330 6.4 17.7 0.00 0.00 0.00 74 1031.5
20200531035524 10 346 9.7 17.7 0.00 0.00 0.00 74 1031.4
20200531035023 10 347 8.0 17.7 0.00 0.00 0.00 74 1031.5
20200531034745 10 337 9.7 17.7 0.00 0.00 0.00 74 1031.4
20200531034021 10 360 9.7 20.9 0.00 0.00 0.00 73 1031.4
20200531033520 10 344 9.7 20.9 0.00 0.00 0.00 74 1031.3
20200531033042 10 9 11.3 19.3 0.00 0.00 0.00 75 1031.2
20200531032527 10 331 11.3 17.7 0.00 0.00 0.00 75 1031.2
20200531032019 10 355 11.3 17.7 0.00 0.00 0.00 74 1031.3
20200531031537 10 342 9.7 17.7 0.00 0.00 0.00 75 1031.3
20200531030520 10 331 9.7 17.7 0.00 0.00 0.00 74 1031.3
20200531030020 10 355 9.7 17.7 0.00 0.00 0.00 74 1031.3
20200531025532 10 341 9.7 16.1 0.00 0.00 0.00 74 1031.3
20200531025020 10 338 9.7 16.1 0.00 0.00 0.00 74 1031.3
20200531024520 10 349 9.7 19.3 0.00 0.00 0.00 74 1031.1
20200531024021 9 348 11.3 19.3 0.00 0.00 0.00 74 1031.2
20200531023519 9 355 9.7 16.1 0.00 0.00 0.00 75 1031.2
20200531023040 9 349 9.7 14.5 0.00 0.00 0.00 75 1031.1
20200531022516 9 346 9.7 16.1 0.00 0.00 0.00 75 1031.1
20200531022019 9 333 9.7 16.1 0.00 0.00 0.00 75 1031.2
20200531021518 9 336 11.3 16.1 0.00 0.00 0.00 76 1031.2
20200531020531 9 333 9.7 17.7 0.00 0.00 0.00 77 1031.1
20200531020025 9 355 11.3 17.7 0.00 0.00 0.00 77 1031.1
20200531015514 9 355 11.3 17.7 0.00 0.00 0.00 76 1031.1
20200531015014 9 5 8.0 16.1 0.00 0.00 0.00 76 1031.1
20200531014557 9 334 9.7 16.1 0.00 0.00 0.00 76 1031.2
20200531014013 9 333 9.7 16.1 0.00 0.00 0.00 75 1031.1
20200531013513 9 340 8.0 17.7 0.00 0.00 0.00 75 1031.1
20200531013019 9 338 11.3 20.9 0.00 0.00 0.00 75 1031.0
20200531012512 9 17 11.3 20.9 0.00 0.00 0.00 75 1031.0
20200531012012 10 355 9.7 17.7 0.00 0.00 0.00 75 1031.0
20200531011534 10 336 9.7 17.7 0.00 0.00 0.00 75 1031.0
20200531010513 10 347 11.3 19.3 0.00 0.00 0.00 75 1031.0
20200531010039 10 360 11.3 17.7 0.00 0.00 0.00 75 1031.0
20200531005528 9 350 11.3 16.1 0.00 0.00 0.00 75 1030.9
20200531005010 9 347 9.7 17.7 0.00 0.00 0.00 76 1030.9
20200531004513 9 348 9.7 19.3 0.00 0.00 0.00 77 1030.9
20200531004008 9 355 11.3 19.3 0.00 0.00 0.00 77 1031.0
20200531003508 9 5 11.3 16.1 0.00 0.00 0.00 77 1030.9
20200531003008 9 340 8.0 16.1 0.00 0.00 0.00 77 1030.9
20200531002506 9 336 6.4 16.1 0.00 0.00 0.00 76 1030.8
20200531002005 10 331 9.7 14.5 0.00 0.00 0.00 75 1030.8
20200531001511 10 360 8.0 14.5 0.00 0.00 0.00 74 1030.8
20200531000514 10 327 6.4 12.9 0.00 0.00 0.00 73 1030.9
20200531000004 10 355 4.8 8.0 0.00 0.00 0.00 72 1031.0
20200530235504 10 355 4.8 8.0 0.00 0.00 0.00 73 1031.0
20200530235003 10 5 4.8 8.0 0.00 0.00 0.00 73 1031.0
20200530234502 10 42 4.8 6.4 0.00 0.00 0.00 72 1031.0
20200530233117 10 47 3.2 6.4 0.00 0.00 0.00 71 1031.0
20200530232559 10 48 3.2 6.4 0.00 0.00 0.00 71 1031.1
20200530232058 11 71 4.8 6.4 0.00 0.00 0.00 70 1031.1
20200530231709 11 89 1.6 6.4 0.00 0.00 0.00 69 1031.0
20200530230610 11 91 3.2 4.8 0.00 0.00 0.00 69 1030.9
20200530230154 11 91 3.2 4.8 0.00 0.00 0.00 68 1030.9
20200530225552 11 91 1.6 4.8 0.00 0.00 0.00 68 1030.8
20200530225052 11 91 1.6 3.2 0.00 0.00 0.00 68 1030.7
20200530224655 11 91 1.6 4.8 0.00 0.00 0.00 67 1030.7
20200530224054 12 91 3.2 4.8 0.00 0.00 0.00 65 1030.6
20200530223548 12 91 0.0 3.2 0.00 0.00 0.00 64 1030.6
20200530223224 12 91 0.0 3.2 0.00 0.00 0.00 64 1030.5
20200530222603 12 92 0.0 4.8 0.00 0.00 0.00 64 1030.5
20200530222100 12 91 0.0 4.8 0.00 0.00 0.00 64 1030.4
20200530221613 12 91 1.6 4.8 0.00 0.00 0.00 63 1030.3
20200530220543 12 92 0.0 0.0 0.00 0.00 0.00 62 1030.3
20200530220135 13 91 0.0 4.8 0.00 0.00 0.00 61 1030.2
20200530215624 13 92 0.0 4.8 0.00 0.00 0.00 61 1030.2
20200530215042 13 92 3.2 4.8 0.00 0.00 0.00 60 1030.1
20200530214627 13 92 1.6 4.8 0.00 0.00 0.00 58 1030.0
20200530214117 14 92 0.0 0.0 0.00 0.00 0.00 56 1030.0
20200530213556 14 92 0.0 0.0 0.00 0.00 0.00 55 1029.9
20200530213151 15 92 0.0 0.0 0.00 0.00 0.00 55 1029.9
20200530212549 15 92 0.0 3.2 0.00 0.00 0.00 55 1029.9
20200530212042 15 92 0.0 4.8 0.00 0.00 0.00 54 1029.9
20200530211634 15 92 0.0 4.8 0.00 0.00 0.00 55 1029.9
20200530210551 15 92 1.6 9.7 0.00 0.00 0.00 54 1029.9
20200530210051 15 92 0.0 3.2 0.00 0.00 0.00 55 1029.9
20200530205554 15 92 0.0 3.2 0.00 0.00 0.00 54 1029.8
20200530205044 15 91 0.0 0.0 0.00 0.00 0.00 53 1029.7
20200530204659 15 92 0.0 0.0 0.00 0.00 0.00 51 1029.7
20200530204055 16 91 0.0 0.0 0.00 0.00 0.00 50 1029.6
20200530203543 16 92 0.0 0.0 0.00 0.00 0.00 48 1029.6
20200530203140 16 92 0.0 0.0 0.00 0.00 0.00 47 1029.5
20200530202540 16 92 0.0 0.0 0.00 0.00 0.00 46 1029.6
20200530202039 17 91 0.0 0.0 0.00 0.00 0.00 45 1029.5
20200530201607 17 91 0.0 0.0 0.00 0.00 0.00 44 1029.4
20200530200544 17 91 0.0 6.4 0.00 0.00 0.00 43 1029.3
20200530200157 17 91 0.0 6.4 0.00 0.00 0.00 43 1029.4
20200530195555 17 91 0.0 4.8 0.00 0.00 0.00 43 1029.3
20200530195122 17 91 0.0 1.6 0.00 0.00 0.00 43 1029.2
20200530194635 17 92 0.0 1.6 0.00 0.00 0.00 43 1029.2
20200530194049 18 91 0.0 1.6 0.00 0.00 0.00 42 1029.2
20200530193541 18 92 0.0 4.8 0.00 0.00 0.00 41 1029.1
20200530193116 18 92 0.0 4.8 0.00 0.00 0.00 40 1029.1
20200530192556 18 91 0.0 1.6 0.00 0.00 0.00 39 1029.0
20200530192059 19 92 0.0 1.6 0.00 0.00 0.00 38 1029.0
20200530191741 19 92 0.0 1.6 0.00 0.00 0.00 38 1029.0
20200530190551 19 91 1.6 9.7 0.00 0.00 0.00 38 1028.9
20200530190112 19 92 1.6 9.7 0.00 0.00 0.00 37 1028.9
20200530185543 19 76 1.6 6.4 0.00 0.00 0.00 37 1028.9
20200530185043 19 76 0.0 3.2 0.00 0.00 0.00 38 1028.8
20200530184643 19 76 1.6 6.4 0.00 0.00 0.00 37 1028.8
20200530184043 19 76 1.6 6.4 0.00 0.00 0.00 37 1028.8
20200530183543 19 75 0.0 4.8 0.00 0.00 0.00 37 1028.8
20200530183108 19 75 0.0 8.0 0.00 0.00 0.00 37 1028.8
20200530182626 19 74 3.2 12.9 0.00 0.00 0.00 36 1028.9
20200530182041 19 56 3.2 12.9 0.00 0.00 0.00 37 1028.9
20200530181636 19 62 6.4 12.9 0.00 0.00 0.00 36 1028.8
20200530180543 19 113 3.2 9.7 0.00 0.00 0.00 37 1028.9
20200530180206 18 121 1.6 6.4 0.00 0.00 0.00 37 1028.9
20200530175546 18 147 0.0 11.3 0.00 0.00 0.00 37 1028.9
20200530175040 19 147 0.0 11.3 0.00 0.00 0.00 36 1028.9
20200530174639 19 104 1.6 9.7 0.00 0.00 0.00 36 1028.9
20200530174039 19 103 0.0 9.7 0.00 0.00 0.00 36 1029.0
20200530173109 19 103 1.6 9.7 0.00 0.00 0.00 35 1028.9
20200530172539 19 103 3.2 14.5 0.00 0.00 0.00 36 1029.0
20200530172042 20 110 6.4 14.5 0.00 0.00 0.00 36 1029.0
20200530171621 19 119 0.0 12.9 0.00 0.00 0.00 37 1029.0
20200530170542 19 127 6.4 16.1 0.00 0.00 0.00 37 1029.0
20200530170122 19 196 4.8 12.9 0.00 0.00 0.00 36 1029.0
20200530165538 20 164 4.8 12.9 0.00 0.00 0.00 35 1029.0
20200530165040 20 82 6.4 14.5 0.00 0.00 0.00 34 1029.1
20200530164553 20 80 8.0 27.4 0.00 0.00 0.00 35 1029.1
20200530164048 20 134 14.5 27.4 0.00 0.00 0.00 35 1029.1
20200530163535 20 112 6.4 17.7 0.00 0.00 0.00 34 1029.1
20200530163135 20 94 4.8 12.9 0.00 0.00 0.00 35 1029.2
20200530162536 20 56 3.2 9.7 0.00 0.00 0.00 36 1029.3
20200530162040 19 94 4.8 12.9 0.00 0.00 0.00 36 1029.2
20200530161744 19 171 4.8 12.9 0.00 0.00 0.00 35 1029.2
20200530160542 20 85 6.4 14.5 0.00 0.00 0.00 35 1029.2
20200530160058 20 166 4.8 14.5 0.00 0.00 0.00 34 1029.2
20200530155534 20 89 1.6 19.3 0.00 0.00 0.00 34 1029.2
20200530155035 20 101 9.7 19.3 0.00 0.00 0.00 33 1029.2
20200530154605 20 184 4.8 17.7 0.00 0.00 0.00 33 1029.2
20200530154035 20 95 4.8 17.7 0.00 0.00 0.00 33 1029.3
20200530153532 20 34 4.8 16.1 0.00 0.00 0.00 33 1029.2
20200530153055 20 113 6.4 19.3 0.00 0.00 0.00 34 1029.2
20200530152532 20 119 12.9 24.1 0.00 0.00 0.00 34 1029.2
20200530152107 20 150 14.5 24.1 0.00 0.00 0.00 33 1029.1
20200530151601 20 124 11.3 22.5 0.00 0.00 0.00 32 1029.1
20200530150535 20 118 8.0 20.9 0.00 0.00 0.00 33 1029.2
20200530150119 20 87 6.4 22.5 0.00 0.00 0.00 34 1029.3
20200530145536 20 107 9.7 22.5 0.00 0.00 0.00 34 1029.2
20200530145037 20 147 11.3 22.5 0.00 0.00 0.00 33 1029.2
20200530144544 20 122 9.7 19.3 0.00 0.00 0.00 32 1029.2
20200530144034 20 109 9.7 20.9 0.00 0.00 0.00 34 1029.3
20200530143533 20 152 6.4 20.9 0.00 0.00 0.00 33 1029.3
20200530143034 20 119 6.4 14.5 0.00 0.00 0.00 32 1029.2
20200530142533 20 116 6.4 24.1 0.00 0.00 0.00 34 1029.2
20200530142040 20 192 11.3 25.7 0.00 0.00 0.00 33 1029.1
20200530141601 20 156 1.6 19.3 0.00 0.00 0.00 33 1029.2
20200530140547 20 151 6.4 16.1 0.00 0.00 0.00 33 1029.2
20200530140039 20 221 4.8 25.7 0.00 0.00 0.00 32 1029.2
20200530135529 20 117 11.3 25.7 0.00 0.00 0.00 33 1029.1
20200530135030 20 139 8.0 19.3 0.00 0.00 0.00 33 1029.2
20200530134531 20 193 9.7 19.3 0.00 0.00 0.00 31 1029.2
20200530134029 20 184 8.0 16.1 0.00 0.00 0.00 32 1029.3
20200530133528 20 196 8.0 19.3 0.00 0.00 0.00 32 1029.3
20200530133109 20 180 4.8 25.7 0.00 0.00 0.00 32 1029.3
20200530132529 20 146 8.0 25.7 0.00 0.00 0.00 32 1029.3
20200530132035 20 173 12.9 25.7 0.00 0.00 0.00 31 1029.3
20200530131533 20 150 9.7 22.5 0.00 0.00 0.00 31 1029.3
20200530130525 20 179 12.9 24.1 0.00 0.00 0.00 31 1029.4
20200530130040 20 145 12.9 24.1 0.00 0.00 0.00 31 1029.4
20200530125525 20 161 12.9 25.7 0.00 0.00 0.00 30 1029.4
20200530125033 21 195 11.3 24.1 0.00 0.00 0.00 30 1029.4
20200530124536 21 158 11.3 25.7 0.00 0.00 0.00 30 1029.4
20200530124024 21 134 12.9 25.7 0.00 0.00 0.00 27 1029.4
20200530123523 21 106 11.3 22.5 0.00 0.00 0.00 28 1029.4
20200530123052 21 126 9.7 25.7 0.00 0.00 0.00 28 1029.5
20200530122523 21 103 9.7 25.7 0.00 0.00 0.00 28 1029.4
20200530122023 21 140 8.0 24.1 0.00 0.00 0.00 28 1029.4
20200530121536 21 119 11.3 24.1 0.00 0.00 0.00 29 1029.5
20200530120523 21 128 12.9 25.7 0.00 0.00 0.00 27 1029.5
20200530120121 21 125 4.8 22.5 0.00 0.00 0.00 28 1029.5
20200530115531 22 126 12.9 17.7 0.00 0.00 0.00 27 1029.6
20200530115031 22 98 4.8 20.9 0.00 0.00 0.00 27 1029.7
20200530114540 21 115 11.3 20.9 0.00 0.00 0.00 28 1029.7
20200530114038 21 135 12.9 19.3 0.00 0.00 0.00 28 1029.7
20200530113521 22 118 11.3 19.3 0.00 0.00 0.00 28 1029.7
20200530113021 22 98 8.0 17.7 0.00 0.00 0.00 28 1029.8
20200530112519 21 102 3.2 19.3 0.00 0.00 0.00 27 1029.7
20200530112021 22 102 12.9 19.3 0.00 0.00 0.00 28 1029.8
20200530111527 22 95 9.7 19.3 0.00 0.00 0.00 28 1029.9
20200530110532 21 112 9.7 19.3 0.00 0.00 0.00 28 1030.2
20200530110129 21 128 11.3 19.3 0.00 0.00 0.00 28 1030.2
20200530105521 21 98 8.0 19.3 0.00 0.00 0.00 28 1030.2
20200530105021 21 327 4.8 19.3 0.00 0.00 0.00 28 1030.3
20200530104530 21 78 6.4 17.7 0.00 0.00 0.00 28 1030.4
20200530104025 21 335 8.0 17.7 0.00 0.00 0.00 28 1030.3
20200530103519 21 118 12.9 24.1 0.00 0.00 0.00 28 1030.3
20200530103038 21 146 11.3 24.1 0.00 0.00 0.00 28 1030.4
20200530102517 21 122 9.7 17.7 0.00 0.00 0.00 29 1030.5
20200530102016 22 69 8.0 14.5 0.00 0.00 0.00 29 1030.5
20200530101548 21 98 4.8 16.1 0.00 0.00 0.00 30 1030.6
20200530100528 21 53 9.7 22.5 0.00 0.00 0.00 28 1030.7
20200530100041 21 78 3.2 17.7 0.00 0.00 0.00 29 1030.8
20200530095523 21 82 8.0 19.3 0.00 0.00 0.00 28 1030.9
20200530095011 21 128 8.0 16.1 0.00 0.00 0.00 29 1030.7
20200530094508 21 111 8.0 17.7 0.00 0.00 0.00 29 1030.8
20200530094005 21 119 12.9 17.7 0.00 0.00 0.00 28 1030.8
20200530093505 21 36 6.4 20.9 0.00 0.00 0.00 30 1030.8
20200530093014 21 95 12.9 20.9 0.00 0.00 0.00 29 1030.8
20200530092503 21 131 11.3 22.5 0.00 0.00 0.00 30 1030.8
20200530092002 21 94 12.9 22.5 0.00 0.00 0.00 31 1030.9
20200530090506 20 22 3.2 16.1 0.00 0.00 0.00 31 1030.9
20200530090001 21 5 8.0 16.1 0.00 0.00 0.00 30 1030.9
20200530085601 21 74 6.4 14.5 0.00 0.00 0.00 31 1030.9
20200530085058 20 36 4.8 14.5 0.00 0.00 0.00 31 1030.9
20200530084639 20 63 4.8 14.5 0.00 0.00 0.00 33 1030.9
20200530084056 20 44 6.4 14.5 0.00 0.00 0.00 33 1030.9
20200530083554 20 90 4.8 12.9 0.00 0.00 0.00 33 1030.9
20200530083205 20 38 4.8 14.5 0.00 0.00 0.00 35 1031.0
20200530082559 20 10 4.8 14.5 0.00 0.00 0.00 34 1031.0
20200530082051 19 51 3.2 9.7 0.00 0.00 0.00 34 1031.1